Regional Weather Roundup
Issued by NWS

Home | Current Version | Previous Version | Graphics & Text | Print | Product List | Glossary On
Versions: 1 2 3 4 5 6 7 8 9 10 11 12 13 14 15 16 17 18 19 20 21 22 23 24 25 26 27 28 29 30 31 32 33 34 35 36 37 38 39 40 41 42 43 44 45
000
ASUS45 KTFX 290610
RWRMT
MONTANA REGIONAL WEATHER ROUNDUP
NATIONAL WEATHER SERVICE GREAT FALLS MT
1200 AM MDT FRI MAY 29 2015

NOTE: "FAIR" INDICATES FEW OR NO CLOUDS BELOW 12000 FEET WITH NO
SIGNIFICANT WEATHER AND/OR OBSTRUCTIONS TO VISIBILITY.

MTZ001>007-043-290700-
WEST OF THE DIVIDE

CITY           SKY/WX    TMP DP  RH WIND       PRES   REMARKS
KALISPELL      PTCLDY    51  41  68 NW5       30.20F
MISSOULA       CLEAR     57  44  62 E13       30.22S
BUTTE          CLOUDY    48  42  80 NW6       30.29F
MULLAN PASS    PTCLDY    45  41  86 SE9G17    30.24F
DEER LODGE       N/A     46  41  81 N6        30.33S
EUREKA           N/A     55  52  88 CALM      30.21
HAMILTON         N/A     52  46  82 S2        30.20F
LIBBY            N/A     54  54 100 CALM      30.21S VSB 1/4
PLAINS           N/A     55  49  80 CALM      30.18S
$$

MTZ008-052>055-290700-
SOUTHWEST MONTANA

CITY           SKY/WX    TMP DP  RH WIND       PRES   REMARKS
BOZEMAN        CLOUDY    49  48  97 NE5       30.27S
DILLON         LGT RAIN  48  45  89 NE12      30.27R
W YELLOWSTONE  CLOUDY    45  39  81 N7        30.28S
THREE FORKS      N/A     52   5  15 CALM      30.24S
TWIN BRIDGES     N/A     49  43  80 N13       30.22S
$$

MTZ009-010-012-014-046-048-049-054-290700-
EAST SLOPES AND CENTRAL MONTANA

CITY           SKY/WX    TMP DP  RH WIND       PRES   REMARKS
CUT BANK       PTCLDY    41  39  93 CALM      30.33F
GREAT FALLS    CLOUDY    45  44  97 N5        30.32F FOG
MALMSTROM AFB  CLOUDY    46  45  96 N3        30.33F FOG
HELENA         CLOUDY    50  43  77 N6        30.31S
CONRAD           N/A     46  46 100 NW3       30.32S
$$

MTZ011-013-016-021-045-047-050-051-290700-
NORTH CENTRAL MONTANA

CITY           SKY/WX    TMP DP  RH WIND       PRES   REMARKS
HAVRE          CLEAR     42  40  92 SW7       30.30R
LEWISTOWN      CLOUDY    48  45  89 N13       30.29R
N BAR RANCH    CLOUDY    46  45  93 NE13      30.29R FOG
CHINOOK          N/A     43  41  93 W3        30.29S
FORT BENTON      N/A     48  43  81 NW6       30.33S
$$

MTZ017>020-022>027-061-062-290700-
NORTHEAST MONTANA

CITY           SKY/WX    TMP DP  RH WIND       PRES   REMARKS
GLASGOW        PTCLDY    45  39  79 N7        30.25R
JORDAN           N/A     51  46  83 N13       30.23R
SIDNEY         CLOUDY    50  37  62 N18G24    30.17R
WOLF POINT     CLEAR     46  40  79 N8        30.24R
MALTA            N/A     46  38  74 CALM      30.23R
PLENTYWOOD       N/A     43  34  70 N13       30.20R
POPLAR           N/A     45  37  76 N5        30.24R
SCOBEY           N/A     36  31  82 N3        30.19R
$$

MTZ028>42-056>058-290700-
SOUTHCENTRAL AND SOUTHEAST MONTANA

CITY           SKY/WX    TMP DP  RH WIND       PRES   REMARKS
BAKER          CLOUDY    55  49  80 N16G25    30.11R
BILLINGS       CLOUDY    53  51  93 N13       30.22R
LIVINGSTON     CLOUDY    50  47  89 W7        30.26S
MILES CITY     CLOUDY    53  47  79 N18       30.17R
BIG TIMBER       N/A     52  48  87 CALM      30.27R
EKALAKA          N/A     53  50  90 N9        30.08R
LAUREL           N/A     53  48  83 N2        30.19R
ROUNDUP          N/A     51  45  80 N8        30.14R
$$

REGIONAL REPORTS...DAKOTAS

CITY           SKY/WX    TMP DP  RH WIND       PRES   REMARKS
WILLISTON      CLOUDY    50  38  63 N22G31    30.15R
MINOT          CLOUDY    50  42  74 N24G32    30.08R
DICKINSON      CLOUDY    56  51  84 N14       30.05R
BEACH          CLOUDY    48  46  93 N23G33    30.13R
CROSBY         CLOUDY    46  37  71 N20       30.18R
WATFORD CITY   CLOUDY    48  45  87 N17       30.12R
BISMARCK       CLOUDY    61  53  75 N20G29    29.96R
GRAND FORKS    CLOUDY    60  58  92 N17       29.88R
FARGO          HVY RAIN  63  61  93 W6        29.86R FOG
BUFFALO SD       N/A     55  53  93 NW9       30.00R
RAPID CITY     CLOUDY    58  51  78 N14       30.00S
$$

REGIONAL REPORTS...WYOMING/IDAHO/WASHINGTON

CITY           SKY/WX    TMP DP  RH WIND       PRES   REMARKS
GILLETTE       LGT RAIN  52  49  89 NW16      30.13S
SHERIDAN       RAIN      52  50  93 W12       30.19S FOG
BUFFALO WY     LGT RAIN  50  47  89 NW18G28   30.19R
CODY           CLOUDY    50  45  81 N7        30.24R
YELLOWSTONE LA   N/A     37  36  96 CALM      30.33R
IDAHO FALLS    CLEAR     48  45  89 N5        30.22R
SALMON         MOCLDY    50  45  81 NE3       30.21S
BOISE          CLEAR     63  45  51 CALM      30.06S
SPOKANE        PTCLDY    60  52  74 N6        30.11R
$$

REGIONAL REPORTS...ALBERTA

CITY           SKY/WX    TMP DP  RH WIND       PRES   REMARKS
EDMONTON       CLEAR     41  27  56 E7        30.32R
CALGARY        MOCLDY    48  41  76 S8        30.29F
LETHBRIDGE     CLEAR     39  37  93 SW9       30.31F
MEDICINE HAT   CLEAR     45  34  65 E6        30.31R
$$

REGIONAL REPORTS...SASKATCHEWAN

CITY           SKY/WX    TMP DP  RH WIND       PRES   REMARKS
SWIFT CURRENT  CLEAR     37  28  70 NE8       30.29R WCI  31
REGINA         PTCLDY    41  30  65 N13G22    30.25R
SASKATOON      PTCLDY    36  28  75 N8        30.35R WCI  29
$$



USA.gov is the U.S. government's official web portal to all federal, state and local government web resources and services.